This is the latest recevied weather packets stored in our database for station/object EA1FBN. If no packets are shown the sender has not sent any weather packets the latest 1 day(s).
| Time | Temp. | Humidity | Pressure | Rain* | Wind** | Luminosity | Snow |
|---|---|---|---|---|---|---|---|
| 1777992009 | 13.89° C | 57% | 1014.3 hPa | 0 mm | 4.92 m/s, 46° | - | - |
| 1777991709 | 13.89° C | 52% | 1014.3 hPa | 0 mm | 5.36 m/s, 80° | - | - |
| 1777991409 | 13.89° C | 54% | 1014.3 hPa | 0 mm | 4.92 m/s, 131° | - | - |
| 1777991109 | 13.33° C | 59% | 1014.3 hPa | 0 mm | 4.02 m/s, 95° | - | - |
| 1777990809 | 13.33° C | 57% | 1014.4 hPa | 0 mm | 3.13 m/s, 92° | - | - |
| 1777990509 | 13.33° C | 55% | 1014.4 hPa | 0 mm | 2.68 m/s, 56° | - | - |
| 1777990209 | 13.33° C | 57% | 1014.4 hPa | 0 mm | 3.58 m/s, 72° | - | - |
| 1777989909 | 13.33° C | 56% | 1014.5 hPa | 0 mm | 4.02 m/s, 75° | - | - |
| 1777989609 | 13.89° C | 56% | 1014.5 hPa | 0 mm | 4.02 m/s, 91° | - | - |
| 1777989309 | 13.33° C | 55% | 1014.6 hPa | 0 mm | 4.02 m/s, 101° | - | - |
| 1777989009 | 13.33° C | 55% | 1014.6 hPa | 0 mm | 4.02 m/s, 103° | - | - |
| 1777988709 | 13.33° C | 57% | 1014.7 hPa | 0 mm | 3.58 m/s, 73° | - | - |
| 1777988409 | 12.78° C | 57% | 1014.7 hPa | 0 mm | 4.02 m/s, 110° | - | - |
| 1777988109 | 12.78° C | 57% | 1014.8 hPa | 0 mm | 3.58 m/s, 116° | - | - |
| 1777987809 | 12.78° C | 58% | 1014.8 hPa | 0 mm | 3.58 m/s, 134° | - | - |
| 1777987509 | 12.22° C | 61% | 1014.9 hPa | 0 mm | 3.13 m/s, 51° | - | - |
| 1777987209 | 11.67° C | 63% | 1014.9 hPa | 0 mm | 2.24 m/s, 108° | - | - |
| 1777986909 | 11.67° C | 62% | 1014.9 hPa | 0 mm | 2.68 m/s, 84° | - | - |
| 1777986609 | 11.67° C | 61% | 1015 hPa | 0 mm | 3.58 m/s, 103° | - | - |
| 1777986309 | 12.22° C | 60% | 1015 hPa | 0 mm | 3.58 m/s, 97° | - | - |
| 1777986009 | 12.78° C | 57% | 1014.9 hPa | 0 mm | 3.58 m/s, 24° | - | - |
| 1777985710 | 12.78° C | 59% | 1015 hPa | 0 mm | 3.58 m/s, 41° | - | - |
| 1777985409 | 12.22° C | 62% | 1015 hPa | 0 mm | 4.02 m/s, 49° | - | - |
| 1777985109 | 12.22° C | 59% | 1015.2 hPa | 0 mm | 4.02 m/s, 108° | - | - |
| 1777984810 | 12.22° C | 60% | 1015.3 hPa | 0 mm | 3.58 m/s, 108° | - | - |
* Rain latest hour (hover to see other rain measurements)
** Current wind speed in m/s (hover to see current wind gust speed)